QPF
0.00 0.00 0.00 0.00 0.00 0.00 0.00 0.00 0.00 0.00 0.00 0.00 0.00 0.00 0.00 0.00 0.00 0.00 0.00 0.00 0.00 0.00 0.00 0.00 0.00 0.00 0.00 0.00 0.00 0.00 0.00 0.00 0.00 0.00 0.00 0.00 0.00 0.00 0.00 0.00 0.00 0.00 0.00 0.00 0.00
0.00 0.00 0.00 0.00 0.00 0.00 0.00 0.00 0.00 0.00 0.00 0.00 0.00 0.00 0.00 0.00 0.00 0.00 0.00 0.00 0.00 0.00 0.00 0.00 0.00 0.00 0.00 0.00 0.00 0.00 0.00 0.00 0.00 0.00 0.00 0.00 0.00 0.00 0.00 0.00 0.00 0.00 0.00 0.00 0.00
0.00 0.00 0.00 0.00 0.00 0.00 0.00 0.00 0.00 0.00 0.00 0.00 0.00 0.00 0.00 0.00 0.00 0.00 0.00 0.00 0.00 0.00 0.00 0.00 0.00 0.00 0.00 0.00 0.00 0.00 0.00 0.00 0.00 0.00 0.00 0.00 0.00 0.00 0.00 0.00 0.00 0.00 0.00 0.00 0.00
0.00 0.00 0.00 0.00 0.00 0.00 0.00 0.00 0.00 0.00 0.00 0.00 0.00 0.00 0.00 0.00 0.00 0.00 0.00 0.00 0.00 0.00 0.00 0.00 0.00 0.00 0.00 0.00 0.00 0.00 0.00 0.00 0.00 0.00 0.00 0.00 0.00 0.00 0.00 0.00 0.00 0.00 0.00 0.00 0.00
0.00 0.00 0.00 0.00 0.00 0.00 0.00 0.00 0.00 0.00 0.00 0.00 0.00 0.00 0.00 0.00 0.00 0.00 0.00 0.00 0.00 0.00 0.00 0.00 0.00 0.00 0.00 0.00 0.00 0.00 0.00 0.00 0.00 0.00 0.00 0.00 0.00 0.00 0.00 0.00 0.00 0.00 0.00 0.00 0.00
0.00 0.00 0.00 0.00 0.00 0.00 0.00 0.00 0.00 0.00 0.00 0.00 0.00 0.00 0.00 0.00 0.00 0.00 0.00 0.00 0.00 0.00 0.00 0.00 0.00 0.00 0.00 0.00 0.00 0.00 0.00 0.00 0.00 0.00 0.00 0.00 0.00 0.00 0.00 0.00 0.00 0.00 0.00 0.00 0.00
0.00 0.00 0.00 0.00 0.00 0.00 0.00 0.00 0.00 0.00 0.00 0.00 0.00 0.00 0.00 0.00 0.00 0.00 0.00 0.00 0.00 0.00 0.00 0.00 0.00 0.00 0.00 0.00 0.00 0.00 0.00 0.00 0.00 0.00 0.00 0.00 0.00 0.00 0.00 0.00 0.00 0.00 0.00 0.00 0.00
0.00 0.00 0.00 0.00 0.00 0.00 0.00 0.00 0.00 0.00 0.00 0.00 0.00 0.00 0.00 0.00 0.00 0.00 0.00 0.00 0.00 0.00 0.00 0.00 0.00 0.00 0.00 0.00 0.00 0.00 0.00 0.00 0.00 0.00 0.00 0.00 0.00 0.00 0.00 0.00 0.00 0.00 0.00 0.00 0.00
0.00 0.00 0.00 0.00 0.00 0.00 0.00 0.00 0.00 0.00 0.00 0.00 0.00 0.00 0.00 0.00 0.00 0.00 0.00 0.00 0.00 0.00 0.00 0.00 0.00 0.00 0.00 0.00 0.00 0.00 0.00 0.00 0.00 0.00 0.00 0.00 0.00 0.00 0.00 0.00 0.00 0.00 0.00 0.00 0.00
0.00 0.00 0.00 0.00 0.00 0.00 0.00 0.00 0.00 0.00 0.00 0.00 0.00 0.00 0.00 0.00 0.00 0.00 0.00 0.00 0.00 0.00 0.00 0.00 0.00 0.00 0.00 0.00 0.00 0.00 0.00 0.00 0.00 0.00 0.00 0.00 0.00 0.00 0.00 0.00 0.00 0.00 0.00 0.00 0.00
0.00 0.00 0.00 0.00 0.00 0.00 0.00 0.00 0.00 0.00 0.00 0.00 0.00 0.00 0.00 0.00 0.00 0.00 0.00 0.00 0.00 0.00 0.00 0.00 0.00 0.00 0.00 0.00 0.00 0.00 0.00 0.00 0.00 0.00 0.00 0.00 0.00 0.00 0.00 0.00 0.00 0.00 0.00 0.00 0.00
0.00 0.00 0.00 0.00 0.00 0.00 0.00 0.00 0.00 0.00 0.00 0.00 0.00 0.00 0.00 0.00 0.00 0.00 0.00 0.00 0.00 0.00 0.00 0.00 0.00 0.00 0.00 0.00 0.00 0.00 0.00 0.00 0.00 0.00 0.00 0.00 0.00 0.00 0.00 0.00 0.00 0.00 0.00 0.00 0.00
0.00 0.00 0.00 0.00 0.00 0.00 0.00 0.00 0.00 0.00 0.00 0.00 0.00 0.00 0.00 0.00 0.00 0.00 0.00 0.00 0.00 0.00 0.00 0.00 0.00 0.00 0.00 0.00 0.00 0.00 0.00 0.00 0.00 0.00 0.00 0.00 0.00 0.00 0.00 0.00 0.00 0.00 0.00 0.00 0.00
0.00 0.00 0.00 0.00 0.00 0.00 0.00 0.00 0.00 0.00 0.00 0.00 0.00 0.00 0.00 0.00 0.00 0.00 0.00 0.00 0.00 0.00 0.00 0.00 0.00 0.00 0.00 0.00 0.00 0.00 0.00 0.00 0.00 0.00 0.00 0.00 0.00 0.00 0.00 0.00 0.00 0.00 0.00 0.00 0.00
0.00 0.00 0.00 0.00 0.00 0.00 0.00 0.00 0.00 0.00 0.00 0.00 0.00 0.00 0.00 0.00 0.00 0.00 0.00 0.00 0.00 0.00 0.00 0.00 0.00 0.00 0.00 0.00 0.00 0.00 0.00 0.00 0.00 0.00 0.00 0.00 0.00 0.00 0.00 0.00 0.00 0.00 0.00 0.00 0.00
0.00 0.00 0.00 0.00 0.00 0.00 0.00 0.00 0.00 0.00 0.00 0.00 0.00 0.00 0.00 0.00 0.00 0.00 0.00 0.00 0.00 0.00 0.00 0.00 0.00 0.00 0.00 0.00 0.00 0.00 0.00 0.00 0.00 0.00 0.00 0.00 0.00 0.00 0.00 0.00 0.00 0.00 0.00 0.00 0.00
0.00 0.00 0.00 0.00 0.00 0.00 0.00 0.00 0.00 0.00 0.00 0.00 0.00 0.00 0.00 0.00 0.00 0.00 0.00 0.00 0.00 0.00 0.00 0.00 0.00 0.00 0.00 0.00 0.00 0.00 0.00 0.00 0.00 0.00 0.00 0.00 0.00 0.00 0.00 0.00 0.00 0.00 0.00 0.00 0.00
0.00 0.00 0.00 0.00 0.00 0.00 0.00 0.00 0.00 0.00 0.00 0.00 0.00 0.00 0.00 0.00 0.00 0.00 0.00 0.00 0.00 0.00 0.00 0.00 0.00 0.00 0.00 0.00 0.00 0.00 0.00 0.00 0.00 0.00 0.00 0.00 0.00 0.00 0.00 0.00 0.00 0.00 0.00 0.00 0.00
0.00 0.00 0.00 0.00 0.00 0.00 0.00 0.00 0.00 0.00 0.00 0.00 0.00 0.00 0.00 0.00 0.00 0.00 0.00 0.00 0.00 0.00 0.00 0.00 0.00 0.00 0.00 0.00 0.00 0.00 0.00 0.00 0.00 0.00 0.00 0.00 0.00 0.00 0.00 0.00 0.00 0.00 0.00 0.00 0.00
0.00 0.00 0.00 0.00 0.00 0.00 0.00 0.00 0.00 0.00 0.00 0.00 0.00 0.00 0.00 0.00 0.00 0.00 0.00 0.00 0.00 0.00 0.00 0.00 0.00 0.00 0.00 0.00 0.00 0.00 0.00 0.00 0.00 0.00 0.00 0.00 0.00 0.00 0.00 0.00 0.00 0.00 0.00 0.00 0.00
0.00 0.00 0.00 0.00 0.00 0.00 0.00 0.00 0.00 0.00 0.00 0.00 0.00 0.00 0.00 0.00 0.00 0.00 0.00 0.00 0.00 0.00 0.00 0.00 0.00 0.00 0.00 0.00 0.00 0.00 0.00 0.00 0.00 0.00 0.00 0.00 0.00 0.00 0.00 0.00 0.00 0.00 0.00 0.00 0.00
0.00 0.00 0.00 0.00 0.00 0.00 0.00 0.00 0.00 0.00 0.00 0.00 0.00 0.00 0.00 0.00 0.00 0.00 0.00 0.00 0.00 0.00 0.00 0.00 0.00 0.00 0.00 0.00 0.00 0.00 0.00 0.00 0.00 0.00 0.00 0.00 0.00 0.00 0.00 0.00 0.00 0.00 0.00 0.00 0.00
0.00 0.00 0.00 0.00 0.00 0.00 0.00 0.00 0.00 0.00 0.00 0.00 0.00 0.00 0.00 0.00 0.00 0.00 0.00 0.00 0.00 0.00 0.00 0.00 0.00 0.00 0.00 0.00 0.00 0.00 0.00 0.00 0.00 0.00 0.00 0.00 0.00 0.00 0.00 0.00 0.00 0.00 0.00 0.00 0.00
0.00 0.00 0.00 0.00 0.00 0.00 0.00 0.00 0.00 0.00 0.00 0.00 0.00 0.00 0.00 0.00 0.00 0.00 0.00 0.00 0.00 0.00 0.00 0.00 0.00 0.00 0.00 0.00 0.00 0.00 0.00 0.00 0.00 0.00 0.00 0.00 0.00 0.00 0.00 0.00 0.00 0.00 0.00 0.00 0.00
0.00 0.00 0.00 0.00 0.00 0.00 0.00 0.00 0.00 0.00 0.00 0.00 0.00 0.00 0.00 0.00 0.00 0.00 0.00 0.00 0.00 0.00 0.00 0.00 0.00 0.00 0.00 0.00 0.00 0.00 0.00 0.00 0.00 0.00 0.00 0.00 0.00 0.00 0.00 0.00 0.00 0.00 0.00 0.00 0.00
0.00 0.00 0.00 0.00 0.00 0.00 0.00 0.00 0.00 0.00 0.00 0.00 0.00 0.00 0.00 0.00 0.00 0.00 0.00 0.00 0.00 0.00 0.00 0.00 0.00 0.00 0.00 0.00 0.00 0.00 0.00 0.00 0.00 0.00 0.00 0.00 0.00 0.00 0.00 0.00 0.00 0.00 0.00 0.00 0.00
0.00 0.00 0.00 0.00 0.00 0.00 0.00 0.00 0.00 0.00 0.00 0.00 0.00 0.00 0.00 0.00 0.00 0.00 0.00 0.00 0.00 0.00 0.00 0.00 0.00 0.00 0.00 0.00 0.00 0.00 0.00 0.00 0.00 0.00 0.00 0.00 0.00 0.00 0.00 0.00 0.00 0.00 0.00 0.00 0.00
MSLP
1020.14 1019.64 1019.21 1018.79 1018.42 1018.18 1017.89 1017.69 1017.43 1017.29 1017.18 1017.14 1017.10 1017.02 1016.86 1016.43 1015.97 1015.46 1015.54 1016.54 1016.01 1015.50 1015.02 1013.69 1013.13 1013.02 1012.66 1012.89 1013.03 1012.83 1011.95 1011.96 1012.88 1013.39 1014.12 1015.34 1015.43 1016.27 1016.74 1016.49 1017.31 1018.06 1018.51 1018.89 1018.89
1020.49 1020.01 1019.50 1019.02 1018.61 1018.13 1017.93 1017.63 1017.46 1017.29 1017.09 1017.09 1017.14 1017.18 1017.02 1016.65 1015.53 1015.63 1016.83 1016.43 1016.01 1015.67 1014.65 1013.74 1013.11 1012.73 1012.72 1012.99 1013.15 1012.60 1012.38 1013.29 1014.01 1014.42 1014.81 1015.84 1016.11 1016.61 1016.73 1017.06 1017.51 1018.25 1018.88 1019.25 1019.23
1020.72 1020.28 1019.79 1019.25 1018.81 1018.33 1017.99 1017.69 1017.50 1017.32 1017.20 1017.19 1017.23 1017.24 1017.01 1016.65 1015.68 1016.05 1016.62 1016.44 1016.11 1015.69 1015.03 1014.45 1013.85 1013.31 1013.11 1013.29 1013.59 1013.53 1013.43 1014.51 1015.16 1015.59 1015.93 1016.46 1016.95 1017.50 1017.33 1017.49 1018.82 1019.31 1019.57 1019.67 1019.59
1020.86 1020.44 1019.97 1019.47 1018.92 1018.47 1018.01 1017.73 1017.58 1017.46 1017.37 1017.31 1017.32 1017.25 1017.04 1016.27 1016.12 1016.51 1016.75 1016.50 1016.20 1015.65 1014.97 1014.34 1013.82 1013.46 1013.39 1013.51 1013.99 1014.31 1014.92 1015.24 1016.00 1016.73 1016.83 1016.90 1017.52 1018.03 1018.64 1019.38 1019.91 1020.04 1020.10 1020.12 1020.18
1020.94 1020.48 1019.95 1019.48 1018.95 1018.50 1018.05 1017.76 1017.64 1017.57 1017.51 1017.51 1017.46 1017.35 1017.06 1016.01 1016.60 1016.72 1016.75 1016.36 1015.83 1015.53 1015.14 1014.64 1014.07 1013.97 1013.84 1014.20 1014.22 1014.57 1015.49 1016.05 1016.58 1017.17 1017.31 1017.73 1017.88 1018.14 1019.00 1019.68 1019.85 1019.99 1020.11 1020.41 1020.83
1021.02 1020.53 1019.98 1019.51 1018.99 1018.49 1018.11 1017.87 1017.80 1017.72 1017.70 1017.64 1017.56 1017.46 1016.77 1016.35 1017.14 1016.85 1016.73 1016.38 1016.21 1015.71 1015.49 1015.17 1015.18 1014.85 1014.73 1015.01 1015.06 1015.49 1015.83 1016.35 1016.94 1017.25 1017.55 1017.80 1018.07 1018.82 1018.93 1019.64 1019.72 1019.88 1020.32 1020.75 1021.17
1021.08 1020.53 1020.02 1019.53 1018.98 1018.50 1018.14 1017.95 1017.91 1017.82 1017.70 1017.58 1017.41 1016.98 1016.31 1017.43 1017.17 1017.03 1016.79 1016.74 1016.64 1016.39 1015.96 1016.21 1016.05 1015.42 1015.44 1015.55 1016.10 1015.96 1016.01 1016.43 1016.66 1017.08 1017.29 1017.94 1017.64 1018.02 1018.79 1019.47 1019.56 1019.99 1020.58 1021.14 1021.73
1021.24 1020.64 1020.08 1019.54 1019.01 1018.55 1018.20 1018.00 1017.85 1017.75 1017.57 1017.47 1017.42 1016.76 1016.90 1017.49 1017.18 1016.87 1016.68 1016.55 1016.66 1016.69 1016.70 1016.69 1016.40 1016.04 1015.98 1016.26 1016.10 1015.72 1015.70 1015.28 1015.83 1016.82 1017.47 1018.08 1016.65 1017.18 1018.73 1019.27 1019.63 1020.33 1020.91 1021.46 1022.03
1021.43 1020.81 1020.20 1019.58 1019.04 1018.55 1018.32 1018.11 1017.85 1017.67 1017.55 1017.40 1017.14 1016.47 1016.96 1017.44 1017.20 1017.19 1017.09 1016.87 1016.70 1016.68 1016.75 1016.69 1016.36 1016.14 1016.28 1015.69 1015.18 1015.37 1014.99 1014.99 1015.29 1016.43 1016.94 1017.78 1016.44 1017.17 1018.58 1019.30 1019.76 1020.46 1021.03 1021.58 1022.14
1021.53 1020.98 1020.39 1019.75 1019.13 1018.64 1018.27 1018.12 1017.85 1017.75 1017.31 1016.96 1016.81 1016.76 1017.26 1017.61 1017.65 1017.52 1017.09 1017.13 1016.71 1016.47 1016.45 1016.24 1015.97 1015.52 1015.44 1015.48 1015.34 1015.50 1015.31 1015.21 1015.44 1016.14 1016.92 1016.80 1016.18 1016.51 1017.92 1019.13 1019.78 1020.43 1021.04 1021.65 1022.02
1021.63 1021.12 1020.56 1019.99 1019.37 1018.80 1018.02 1017.90 1017.97 1017.62 1017.48 1018.08 1018.06 1017.64 1017.79 1017.92 1017.97 1017.36 1017.31 1016.90 1016.52 1016.10 1015.92 1016.17 1015.88 1016.24 1016.73 1016.86 1016.87 1016.57 1015.99 1015.38 1015.07 1016.07 1016.70 1015.87 1015.29 1015.39 1016.86 1018.68 1019.58 1020.24 1021.03 1021.79 1022.45
1021.77 1021.34 1020.80 1020.15 1019.50 1018.72 1018.04 1018.55 1020.09 1020.36 1019.33 1018.73 1018.43 1018.21 1018.38 1018.46 1017.70 1017.35 1017.14 1016.67 1016.27 1016.16 1016.15 1016.22 1016.65 1017.43 1017.54 1017.40 1017.11 1016.53 1015.89 1015.38 1015.59 1016.31 1016.52 1015.24 1014.55 1014.78 1015.70 1017.87 1019.13 1020.64 1021.22 1021.83 1022.40
1021.84 1021.32 1020.73 1020.05 1019.46 1019.01 1019.25 1020.37 1020.69 1020.41 1019.12 1018.79 1018.60 1018.38 1018.56 1018.52 1018.03 1017.96 1017.76 1017.32 1016.99 1016.68 1016.74 1016.56 1017.47 1017.78 1017.73 1017.37 1017.12 1016.37 1016.38 1016.44 1016.60 1016.20 1015.32 1015.22 1013.49 1014.43 1016.08 1017.67 1019.40 1020.63 1021.40 1021.92 1022.40
1021.91 1021.29 1020.51 1019.78 1019.70 1019.70 1020.01 1020.78 1020.74 1020.51 1018.97 1018.99 1018.37 1018.73 1018.53 1018.42 1018.30 1018.59 1018.49 1018.39 1017.41 1017.42 1017.39 1017.39 1017.93 1018.01 1017.77 1017.49 1017.71 1016.83 1017.19 1017.26 1017.03 1016.68 1015.55 1015.86 1014.48 1014.23 1015.99 1017.44 1018.77 1019.82 1020.83 1021.65 1022.34
1021.94 1021.34 1020.76 1019.92 1019.70 1019.86 1021.02 1020.86 1020.76 1020.31 1019.31 1019.36 1018.60 1018.64 1018.50 1018.44 1018.77 1018.54 1019.02 1018.16 1018.11 1018.06 1018.08 1017.89 1018.03 1018.10 1017.78 1018.06 1018.22 1017.38 1017.34 1017.26 1017.29 1016.81 1016.26 1015.63 1015.69 1014.40 1015.58 1016.37 1017.39 1018.72 1020.12 1021.26 1022.23
1022.12 1021.51 1020.82 1020.18 1019.95 1021.09 1021.06 1020.94 1020.62 1019.87 1019.36 1019.07 1018.86 1018.71 1018.30 1018.59 1018.79 1018.65 1018.57 1018.56 1018.75 1018.40 1018.09 1018.34 1018.86 1018.79 1018.57 1018.48 1018.51 1018.10 1017.10 1016.28 1016.90 1016.71 1016.05 1015.45 1015.83 1014.37 1014.83 1015.87 1016.45 1017.84 1019.61 1021.15 1022.17
1022.22 1021.70 1020.69 1020.52 1020.71 1021.04 1021.00 1020.38 1019.59 1018.94 1019.74 1019.40 1019.32 1019.27 1019.15 1019.01 1018.88 1019.03 1018.92 1018.85 1018.96 1018.45 1017.98 1017.85 1018.36 1018.89 1019.22 1018.42 1018.31 1017.87 1017.04 1016.23 1016.32 1016.05 1015.44 1015.74 1015.84 1014.57 1015.43 1016.46 1017.14 1017.55 1019.17 1020.61 1021.70
1022.17 1021.74 1021.23 1020.98 1021.01 1021.03 1020.58 1019.69 1019.11 1019.78 1019.62 1020.07 1019.92 1019.53 1019.26 1019.54 1019.34 1019.04 1018.75 1018.85 1019.49 1019.45 1018.87 1018.63 1018.48 1018.88 1019.27 1019.29 1019.17 1018.64 1018.45 1018.03 1017.44 1016.28 1015.70 1015.32 1015.05 1014.78 1016.17 1016.99 1017.57 1017.89 1019.06 1020.33 1021.31
1021.96 1021.04 1020.75 1020.80 1021.15 1021.02 1020.08 1019.31 1019.94 1020.04 1020.44 1020.20 1019.76 1019.43 1019.27 1019.56 1019.73 1019.06 1019.30 1019.66 1020.25 1020.30 1020.11 1019.46 1018.78 1019.23 1019.59 1019.70 1019.78 1018.79 1018.57 1019.28 1018.59 1017.15 1016.84 1014.81 1014.18 1015.34 1015.90 1016.62 1017.34 1017.86 1018.75 1019.64 1020.51
1021.82 1020.94 1020.51 1020.99 1021.13 1020.60 1019.33 1020.03 1020.53 1020.90 1020.90 1020.71 1019.94 1020.03 1019.44 1019.45 1019.39 1019.21 1019.48 1020.35 1020.58 1021.01 1021.00 1020.46 1019.98 1019.31 1019.69 1020.14 1020.15 1019.74 1019.72 1019.27 1018.52 1017.37 1015.85 1013.94 1013.40 1013.53 1014.33 1015.15 1016.34 1017.15 1017.85 1018.80 1019.89
1021.83 1020.58 1020.81 1020.89 1020.88 1019.80 1019.62 1020.52 1021.01 1021.43 1021.58 1021.21 1020.62 1020.31 1020.15 1020.09 1020.07 1019.72 1019.85 1020.51 1020.85 1021.10 1021.39 1021.33 1021.19 1019.64 1019.56 1019.57 1019.69 1019.85 1019.34 1019.34 1018.98 1018.30 1016.91 1014.64 1012.72 1012.61 1013.45 1014.27 1015.17 1016.09 1016.88 1017.74 1018.80
1021.57 1020.51 1020.57 1020.66 1019.99 1020.02 1020.21 1021.05 1021.58 1021.49 1021.74 1021.61 1021.48 1021.14 1020.80 1020.63 1020.31 1020.31 1020.29 1020.37 1021.03 1021.33 1021.20 1021.75 1021.58 1020.41 1019.10 1019.22 1019.98 1020.03 1019.53 1019.27 1018.79 1018.07 1017.54 1016.59 1014.03 1013.02 1013.40 1014.14 1014.86 1015.33 1015.89 1016.87 1017.92
1021.22 1020.54 1020.26 1020.16 1019.53 1020.00 1021.06 1021.34 1021.63 1021.77 1021.86 1021.86 1021.61 1021.60 1021.47 1021.14 1020.85 1020.49 1020.59 1021.03 1021.29 1021.58 1021.51 1022.02 1021.67 1020.83 1018.90 1020.08 1020.22 1019.92 1019.68 1019.87 1019.38 1019.26 1017.89 1016.50 1013.36 1012.98 1013.74 1014.25 1014.61 1015.06 1015.42 1016.12 1017.45
1021.76 1020.50 1020.13 1020.11 1020.63 1020.20 1020.73 1021.14 1021.62 1022.09 1021.97 1022.03 1021.82 1021.83 1021.61 1021.14 1020.97 1020.57 1020.51 1020.75 1021.54 1021.85 1022.44 1022.63 1022.12 1021.44 1020.43 1019.60 1019.91 1019.53 1019.16 1019.31 1019.46 1018.71 1017.11 1015.42 1013.42 1012.86 1012.71 1013.17 1013.59 1014.06 1014.99 1015.98 1017.02
1022.20 1021.46 1021.79 1020.62 1020.87 1020.91 1021.13 1021.39 1021.47 1021.76 1022.11 1022.04 1021.80 1021.68 1021.45 1021.05 1020.90 1020.68 1020.70 1021.00 1021.15 1022.09 1022.61 1022.68 1022.29 1021.79 1021.01 1020.65 1020.21 1019.41 1018.49 1018.82 1018.46 1017.51 1017.34 1014.37 1014.48 1013.16 1013.38 1013.81 1014.28 1015.18 1015.73 1016.02 1017.15
1022.42 1022.01 1022.25 1021.67 1021.78 1021.39 1021.54 1021.25 1021.32 1021.57 1021.86 1021.68 1021.82 1021.57 1021.70 1021.47 1021.12 1020.86 1020.60 1020.78 1020.91 1021.84 1022.55 1023.18 1022.67 1022.45 1021.53 1020.59 1019.90 1018.93 1017.36 1017.76 1017.68 1017.08 1016.72 1015.33 1014.38 1014.30 1014.66 1015.16 1015.49 1016.04 1016.78 1017.23 1017.67
1022.79 1022.47 1021.92 1022.13 1021.85 1021.55 1020.88 1021.05 1021.24 1021.67 1021.36 1021.51 1021.59 1021.74 1021.67 1021.62 1021.41 1021.13 1020.93 1020.89 1020.92 1021.26 1022.29 1023.22 1023.38 1023.19 1021.44 1020.71 1020.25 1018.28 1016.03 1016.21 1016.33 1016.20 1015.83 1015.32 1014.21 1014.58 1015.27 1016.19 1016.96 1017.54 1017.99 1018.14 1018.58
Thickness
5680 5684 5687 5691 5693 5695 5696 5697 5699 5699 5698 5697 5696 5695 5694 5695 5697 5699 5688 5682 5685 5686 5687 5694 5694 5690 5690 5677 5676 5674 5664 5655 5646 5642 5638 5632 5627 5621 5618 5619 5613 5607 5603 5604 5606
5680 5683 5687 5691 5693 5696 5697 5698 5699 5699 5700 5698 5696 5694 5693 5694 5701 5692 5683 5684 5685 5685 5690 5689 5687 5689 5679 5674 5671 5669 5662 5648 5648 5643 5636 5626 5624 5617 5616 5613 5610 5604 5602 5599 5600
5680 5683 5686 5690 5693 5695 5697 5698 5698 5698 5698 5697 5695 5694 5694 5694 5695 5686 5685 5684 5684 5685 5687 5687 5686 5683 5673 5672 5664 5659 5651 5645 5638 5635 5631 5622 5616 5612 5612 5610 5596 5590 5590 5592 5593
5681 5684 5687 5691 5694 5696 5698 5699 5698 5698 5697 5696 5695 5694 5694 5698 5679 5687 5684 5684 5683 5684 5686 5684 5683 5675 5668 5661 5662 5645 5645 5642 5632 5623 5621 5618 5613 5605 5599 5591 5587 5587 5587 5587 5586
5684 5687 5691 5694 5697 5699 5701 5701 5700 5699 5698 5696 5695 5694 5696 5694 5682 5686 5684 5684 5685 5685 5680 5678 5676 5671 5662 5659 5659 5648 5638 5634 5629 5619 5616 5611 5607 5604 5594 5589 5588 5587 5586 5582 5578
5686 5690 5694 5696 5699 5701 5703 5702 5701 5700 5697 5696 5695 5694 5696 5683 5685 5685 5683 5684 5682 5682 5677 5676 5667 5668 5659 5651 5647 5643 5637 5628 5622 5617 5612 5607 5603 5592 5594 5587 5586 5586 5582 5576 5571
5688 5692 5695 5699 5702 5704 5705 5705 5702 5700 5699 5698 5697 5698 5696 5679 5686 5685 5684 5681 5679 5676 5671 5667 5664 5662 5656 5644 5640 5637 5627 5622 5620 5616 5612 5604 5601 5596 5592 5585 5584 5579 5573 5566 5558
5689 5693 5697 5700 5704 5706 5707 5706 5704 5702 5702 5700 5698 5699 5684 5687 5687 5687 5685 5681 5678 5674 5668 5665 5663 5656 5650 5644 5637 5633 5631 5627 5626 5614 5607 5598 5604 5605 5587 5581 5577 5569 5563 5557 5549
5689 5694 5698 5702 5706 5708 5708 5706 5706 5705 5703 5702 5700 5699 5683 5689 5685 5684 5682 5675 5674 5671 5667 5665 5661 5652 5646 5642 5640 5634 5626 5627 5624 5616 5608 5594 5605 5601 5582 5575 5570 5564 5558 5551 5544
5690 5694 5698 5702 5706 5708 5709 5707 5707 5705 5705 5704 5702 5693 5687 5677 5680 5679 5681 5675 5670 5668 5663 5661 5658 5655 5652 5641 5625 5620 5620 5622 5617 5614 5601 5599 5602 5604 5585 5571 5565 5559 5555 5547 5541
5690 5694 5698 5701 5704 5707 5709 5710 5707 5704 5701 5686 5682 5683 5681 5682 5680 5679 5676 5673 5672 5670 5657 5656 5650 5633 5629 5626 5620 5616 5616 5618 5625 5613 5596 5603 5607 5609 5594 5570 5563 5557 5550 5540 5531
5690 5694 5697 5701 5704 5708 5709 5701 5687 5686 5686 5686 5684 5683 5679 5676 5674 5676 5679 5671 5668 5656 5658 5653 5635 5629 5625 5621 5617 5619 5620 5622 5618 5605 5596 5606 5606 5610 5603 5576 5566 5546 5541 5533 5526
5690 5694 5698 5702 5706 5706 5699 5688 5685 5684 5695 5684 5683 5680 5676 5675 5670 5667 5668 5664 5656 5652 5647 5643 5632 5628 5623 5623 5617 5623 5613 5607 5598 5602 5611 5603 5620 5603 5590 5576 5557 5541 5534 5527 5519
5690 5694 5699 5705 5704 5700 5694 5686 5684 5683 5694 5678 5681 5677 5677 5673 5667 5665 5662 5654 5655 5644 5641 5638 5631 5623 5622 5620 5612 5612 5607 5599 5594 5591 5596 5594 5598 5607 5586 5570 5559 5551 5538 5527 5516
5690 5694 5698 5703 5701 5698 5687 5685 5683 5683 5663 5676 5675 5680 5675 5668 5661 5661 5656 5655 5642 5638 5636 5632 5626 5620 5621 5611 5606 5609 5606 5597 5590 5588 5589 5591 5581 5606 5586 5579 5571 5560 5544 5529 5516
5688 5692 5696 5698 5697 5686 5684 5683 5682 5684 5645 5669 5671 5665 5668 5663 5657 5657 5653 5651 5641 5634 5636 5627 5620 5616 5613 5609 5602 5603 5607 5612 5592 5588 5585 5591 5581 5600 5598 5585 5581 5567 5546 5526 5513
5685 5688 5692 5691 5690 5684 5682 5685 5686 5675 5671 5663 5656 5656 5651 5648 5649 5643 5637 5633 5627 5625 5626 5633 5622 5613 5605 5607 5604 5604 5602 5599 5594 5589 5594 5582 5572 5597 5588 5575 5567 5566 5547 5529 5513
5681 5685 5686 5686 5683 5681 5682 5688 5674 5662 5662 5656 5651 5652 5647 5640 5640 5640 5640 5634 5627 5620 5619 5611 5607 5608 5602 5595 5588 5589 5584 5579 5569 5583 5586 5592 5579 5595 5571 5561 5557 5556 5544 5527 5512
5679 5684 5685 5683 5679 5678 5684 5674 5663 5661 5653 5650 5653 5650 5649 5642 5633 5639 5630 5622 5613 5610 5603 5602 5611 5602 5593 5589 5583 5587 5583 5570 5565 5579 5558 5588 5597 5564 5564 5560 5551 5546 5536 5524 5515
5674 5680 5683 5677 5675 5677 5687 5659 5655 5650 5647 5645 5646 5640 5638 5636 5633 5632 5624 5614 5607 5601 5598 5596 5587 5598 5590 5580 5576 5574 5571 5567 5567 5563 5564 5593 5596 5590 5580 5573 5557 5546 5537 5527 5514
5669 5676 5674 5672 5671 5682 5666 5654 5647 5643 5638 5638 5638 5634 5632 5624 5621 5623 5618 5609 5604 5597 5591 5584 5576 5593 5588 5582 5577 5571 5571 5563 5560 5558 5559 5568 5593 5597 5584 5575 5564 5552 5543 5532 5518
5665 5669 5669 5667 5673 5666 5657 5647 5636 5638 5634 5631 5627 5624 5622 5617 5616 5612 5607 5607 5600 5592 5586 5576 5572 5569 5585 5583 5568 5564 5563 5561 5553 5555 5552 5549 5563 5586 5575 5565 5557 5551 5544 5532 5519
5660 5662 5665 5663 5663 5654 5639 5635 5633 5629 5626 5623 5621 5616 5613 5609 5603 5606 5601 5598 5591 5584 5579 5568 5565 5559 5586 5565 5557 5557 5558 5551 5550 5543 5540 5544 5571 5580 5562 5552 5548 5541 5539 5530 5513
5650 5653 5656 5653 5645 5648 5638 5633 5626 5619 5619 5615 5613 5609 5604 5604 5603 5599 5595 5595 5581 5576 5561 5557 5557 5557 5562 5569 5560 5556 5556 5550 5542 5536 5546 5560 5567 5577 5572 5562 5555 5547 5534 5522 5508
5637 5639 5629 5642 5635 5633 5628 5624 5620 5616 5611 5609 5607 5603 5601 5596 5593 5590 5588 5582 5580 5563 5553 5550 5546 5547 5553 5552 5550 5552 5553 5545 5540 5546 5531 5560 5549 5562 5557 5548 5541 5526 5516 5513 5499
5630 5628 5620 5623 5617 5621 5612 5618 5615 5611 5605 5604 5596 5599 5593 5585 5586 5580 5582 5576 5571 5559 5547 5536 5538 5533 5534 5547 5545 5544 5556 5548 5542 5540 5535 5542 5543 5547 5539 5527 5519 5510 5497 5488 5483
5616 5616 5620 5606 5610 5612 5620 5615 5609 5603 5606 5600 5595 5588 5585 5582 5579 5576 5575 5570 5564 5556 5540 5524 5519 5514 5533 5537 5525 5538 5559 5553 5548 5544 5538 5531 5545 5536 5527 5513 5499 5481 5473 5470 5464